This is the latest recevied weather packets stored in our database for station/object KF0EZB. If no packets are shown the sender has not sent any weather packets the latest 10 day(s).
| Time | Temp. | Humidity | Pressure | Rain* | Wind** | Luminosity | Snow |
|---|---|---|---|---|---|---|---|
| 1778095968 | 11.67° C | 70% | 1019.9 hPa | 0 mm | - | 323 W/m² | - |
| 1778095665 | 11.67° C | 69% | 1019.7 hPa | 0 mm | - | 268 W/m² | - |
| 1778095362 | 11.67° C | 67% | 1019.8 hPa | 0 mm | - | 273 W/m² | - |
| 1778095058 | 11.67° C | 68% | 1019.8 hPa | 0 mm | - | 336 W/m² | - |
| 1778094755 | 11.11° C | 66% | 1019.8 hPa | 0 mm | - | 372 W/m² | - |
| 1778094452 | 11.67° C | 68% | 1019.8 hPa | 0 mm | - | 414 W/m² | - |
| 1778094148 | 11.11° C | 70% | 1019.9 hPa | 0 mm | - | 386 W/m² | - |
| 1778093846 | 10.56° C | 69% | 1019.8 hPa | 0 mm | - | 393 W/m² | - |
| 1778093542 | 11.11° C | 70% | 1020.1 hPa | 0 mm | - | 325 W/m² | - |
| 1778093240 | 11.11° C | 73% | 1020.2 hPa | 0 mm | - | 315 W/m² | - |
| 1778092937 | 10.56° C | 73% | 1019.9 hPa | 0 mm | - | 294 W/m² | - |
| 1778092633 | 11.11° C | 70% | 1020.2 hPa | 0 mm | - | 347 W/m² | - |
| 1778092329 | 10.56° C | 72% | 1019.9 hPa | 0 mm | - | 377 W/m² | - |
| 1778092027 | 11.11° C | 71% | 1020.2 hPa | 0 mm | - | 444 W/m² | - |
| 1778091724 | 10.56° C | 74% | 1020 hPa | 0 mm | - | 437 W/m² | - |
| 1778091421 | 10.56° C | 75% | 1020.1 hPa | 0 mm | - | 460 W/m² | - |
| 1778091119 | 10.56° C | 76% | 1019.9 hPa | 0 mm | - | 563 W/m² | - |
| 1778090816 | 10° C | 78% | 1020.3 hPa | 0 mm | - | 428 W/m² | - |
| 1778090511 | 10° C | 78% | 1020.1 hPa | 0 mm | - | 290 W/m² | - |
| 1778090208 | 10° C | 80% | 1020.1 hPa | 0 mm | - | 252 W/m² | - |
| 1778089905 | 10° C | 78% | 1020.2 hPa | 0 mm | - | 246 W/m² | - |
| 1778089598 | 10° C | 78% | 1020.1 hPa | 0 mm | - | 201 W/m² | - |
| 1778089294 | 10.56° C | 79% | 1020.2 hPa | 0 mm | - | 338 W/m² | - |
| 1778088992 | 10° C | 80% | 1020.1 hPa | 0 mm | - | 441 W/m² | - |
| 1778088688 | 10° C | 81% | 1020.1 hPa | 0 mm | - | 388 W/m² | - |
* Rain latest hour (hover to see other rain measurements)
** Current wind speed in m/s (hover to see current wind gust speed)